CW3868 Weather Reports


Display with metric or nautical units.
time (UTC)temp
F
wind
direction
speed
MPH
gust
MPH
rain 1hr
in
rain 24hr
in
rain mn
in
humidity
%
barometer
mb
20191119203803 42 317 0.0 0.0 0.00 0.47 0.30 94 1008.5
20191119202802 41 317 0.0 0.0 0.00 0.47 0.30 94 1008.5
20191119201802 41 317 0.0 1.0 0.00 0.48 0.30 94 1008.5
20191119200802 41 316 1.0 2.0 0.00 0.49 0.30 94 1008.5
20191119195802 41 316 1.0 2.0 0.00 0.50 0.30 94 1008.4
20191119194802 41 316 1.0 2.0 0.00 0.50 0.30 94 1008.2
20191119193803 41 316 1.0 2.0 0.00 0.51 0.30 94 1008.1
20191119192802 41 316 0.0 3.0 0.00 0.52 0.30 94 1008.0
20191119191802 41 316 2.0 3.0 0.00 0.52 0.30 94 1007.8
20191119190802 41 316 0.0 2.0 0.00 0.52 0.30 94 1007.8
20191119185802 41 315 1.0 2.0 0.00 0.52 0.30 94 1007.7
20191119184802 41 315 0.0 2.0 0.00 0.52 0.30 94 1007.7
20191119183803 41 314 0.0 2.0 0.00 0.52 0.30 94 1007.6
20191119182802 41 314 0.0 3.0 0.00 0.52 0.30 94 1007.7
20191119181802 41 340 1.0 3.0 0.00 0.52 0.30 94 1007.6
20191119180802 41 330 1.0 2.0 0.00 0.52 0.30 94 1007.6
20191119175802 41 330 1.0 3.0 0.00 0.52 0.30 94 1007.6
20191119174803 41 5 0.0 4.0 0.00 0.52 0.30 95 1007.6
20191119173802 41 330 0.0 3.0 0.00 0.52 0.30 95 1007.6
20191119172802 41 309 1.0 4.0 0.00 0.52 0.30 95 1007.5
20191119171803 41 334 2.0 4.0 0.00 0.52 0.30 95 1007.4
20191119170802 40 332 1.0 2.0 0.00 0.52 0.30 95 1007.5
20191119165802 40 332 1.0 3.0 0.00 0.52 0.30 95 1007.5
20191119164803 40 332 1.0 2.0 0.00 0.52 0.30 95 1007.6
20191119163803 40 349 0.0 2.0 0.00 0.52 0.30 95 1007.4
20191119162802 40 350 1.0 3.0 0.00 0.52 0.30 96 1007.5
20191119161803 40 350 1.0 2.0 0.00 0.52 0.30 96 1007.7
20191119160802 40 350 1.0 3.0 0.00 0.52 0.30 96 1007.7
20191119155802 39 350 1.0 2.0 0.00 0.52 0.30 96 1007.7
20191119154802 39 350 0.0 2.0 0.00 0.52 0.30 96 1007.9
20191119153802 39 348 2.0 4.0 0.00 0.52 0.30 96 1007.8
20191119152803 39 22 0.0 2.0 0.00 0.52 0.30 96 1007.8
20191119151802 39 22 0.0 1.0 0.00 0.52 0.30 96 1007.9
20191119150802 39 22 0.0 2.0 0.00 0.52 0.30 96 1008.0
20191119145803 39 22 1.0 2.0 0.02 0.52 0.30 96 1007.9
20191119144802 38 22 1.0 2.0 0.02 0.52 0.30 96 1007.8
20191119143803 38 22 1.0 4.0 0.02 0.52 0.30 96 1007.7
20191119142803 39 25 1.0 3.0 0.02 0.52 0.30 96 1007.6
20191119141802 38 3 1.0 4.0 0.02 0.52 0.30 96 1007.6
20191119140802 38 24 1.0 5.0 0.01 0.51 0.29 96 1007.5
20191119135803 38 34 2.0 3.0 0.09 0.50 0.28 96 1007.4
20191119134802 38 143 1.0 2.0 0.07 0.48 0.26 96 1007.6
20191119133802 38 143 1.0 2.0 0.07 0.48 0.26 96 1007.6
20191119132802 38 143 0.0 1.0 0.07 0.48 0.26 96 1007.8
20191119131802 38 143 0.0 1.0 0.04 0.45 0.23 96 1007.9
20191119130802 38 143 0.0 3.0 0.02 0.43 0.21 96 1007.8
20191119125802 38 144 1.0 6.0 0.08 0.41 0.19 96 1007.7
20191119124802 38 47 6.0 10.0 0.06 0.39 0.17 96 1007.2
20191119123803 38 80 2.0 3.0 0.05 0.38 0.16 96 1007.7
20191119122802 38 156 0.0 1.0 0.04 0.37 0.15 96 1007.8
20191119121802 37 156 0.0 0.0 0.04 0.37 0.15 96 1007.7
20191119120803 37 156 0.0 1.0 0.02 0.35 0.13 95 1007.6
20191119115802 38 156 0.0 3.0 0.08 0.33 0.11 95 1007.4
20191119114802 38 70 1.0 10.0 0.06 0.31 0.09 95 1007.0
20191119113802 38 35 3.0 7.0 0.04 0.29 0.07 95 1006.6
20191119112802 38 45 2.0 3.0 0.03 0.28 0.06 95 1007.0
20191119111803 38 80 1.0 2.0 0.02 0.27 0.05 96 1007.4
20191119110802 38 80 0.0 0.0 0.01 0.26 0.04 95 1007.4
20191119105802 38 80 0.0 0.0 0.01 0.25 0.03 95 1007.4
20191119104802 38 80 0.0 0.0 0.01 0.25 0.03 95 1007.2
20191119103802 38 80 0.0 1.0 0.01 0.25 0.03 95 1006.9
20191119102802 38 80 1.0 2.0 0.00 0.24 0.02 95 1006.8
20191119101802 38 80 0.0 2.0 0.00 0.24 0.02 95 1006.6
20191119100802 38 80 1.0 2.0 0.00 0.24 0.02 95 1006.5
20191119095803 38 80 0.0 1.0 0.01 0.24 0.02 95 1006.3
20191119094802 38 80 0.0 2.0 0.01 0.24 0.02 95 1006.2
20191119093802 38 80 1.0 3.0 0.01 0.24 0.02 95 1006.0
20191119092802 38 80 1.0 3.0 0.01 0.24 0.02 95 1006.0
20191119091802 38 75 2.0 3.0 0.01 0.24 0.02 96 1005.9
20191119090802 38 57 1.0 2.0 0.00 0.23 0.01 95 1006.1
20191119085803 38 57 0.0 1.0 0.00 0.23 0.01 95 1006.1
20191119084802 38 57 0.0 2.0 0.00 0.23 0.01 95 1005.9
20191119083802 38 57 0.0 2.0 0.00 0.23 0.01 95 1005.9
20191119082802 38 57 1.0 3.0 0.00 0.23 0.01 95 1005.7
20191119081802 39 55 2.0 3.0 0.00 0.23 0.01 95 1005.7
20191119080803 39 57 0.0 2.0 0.00 0.23 0.01 95 1005.7
20191119075802 39 57 1.0 2.0 0.00 0.23 0.01 95 1005.8
20191119074802 39 57 0.0 0.0 0.00 0.23 0.01 95 1005.7
20191119073803 39 57 1.0 2.0 0.00 0.23 0.01 95 1005.5
20191119072802 39 57 0.0 0.0 0.00 0.23 0.01 95 1005.5
20191119071803 39 57 0.0 1.0 0.00 0.23 0.01 95 1005.5
20191119070802 39 57 1.0 3.0 0.00 0.23 0.01 95 1005.4
20191119065802 39 70 2.0 5.0 0.01 0.23 0.01 95 1005.3
20191119064802 39 51 1.0 3.0 0.01 0.23 0.01 95 1005.3
20191119063802 39 51 1.0 2.0 0.00 0.22 0.00 95 1005.3
20191119062802 39 51 1.0 2.0 0.00 0.22 0.00 95 1005.3
20191119061803 39 51 1.0 3.0 0.00 0.22 0.00 95 1005.3
20191119060802 39 51 0.0 2.0 0.00 0.22 0.00 95 1005.3
20191119055803 39 51 2.0 3.0 0.00 0.22 0.00 95 1005.4
20191119054803 39 51 0.0 1.0 0.00 0.22 0.00 95 1005.2
20191119053802 39 51 0.0 3.0 0.00 0.22 0.00 95 1004.9
20191119052803 39 51 1.0 2.0 0.00 0.22 0.00 95 1004.8
20191119051802 39 51 1.0 2.0 0.00 0.22 0.00 95 1004.3
20191119050802 39 51 0.0 2.0 0.00 0.22 0.00 95 1004.3
20191119045802 39 51 0.0 2.0 0.00 0.00 0.00 95 1004.3
20191119044802 39 51 0.0 5.0 0.00 0.22 0.22 95 1004.2
20191119043802 39 36 2.0 4.0 0.00 0.22 0.22 95 1004.0
20191119042802 39 359 1.0 5.0 0.00 0.22 0.22 95 1004.0
20191119041802 39 25 2.0 9.0 0.00 0.22 0.22 95 1004.0
20191119040803 39 18 5.0 11.0 0.00 0.22 0.22 95 1004.0
20191119035802 39 19 4.0 8.0 0.01 0.22 0.22 95 1004.4
20191119034802 39 359 2.0 5.0 0.01 0.22 0.22 95 1004.5
20191119033802 39 18 1.0 3.0 0.01 0.22 0.22 95 1004.6
20191119032803 39 20 1.0 5.0 0.01 0.22 0.22 94 1004.7
20191119031802 39 21 2.0 4.0 0.01 0.22 0.22 94 1004.8
20191119030802 39 3 1.0 5.0 0.00 0.21 0.21 94 1004.9
20191119025802 39 12 0.0 5.0 0.02 0.21 0.21 94 1004.9
20191119024802 39 12 2.0 5.0 0.01 0.20 0.20 94 1005.0
20191119023803 39 15 1.0 4.0 0.01 0.20 0.20 94 1005.2
20191119022802 39 11 1.0 3.0 0.01 0.20 0.20 94 1005.2
20191119021802 39 15 1.0 3.0 0.01 0.20 0.20 94 1005.5
20191119020802 39 15 1.0 4.0 0.01 0.20 0.20 94 1005.4
20191119015802 39 28 2.0 5.0 0.01 0.19 0.19 94 1005.4
20191119014803 39 27 3.0 9.0 0.01 0.19 0.19 94 1005.2
20191119013803 39 28 4.0 9.0 0.01 0.19 0.19 93 1005.2
20191119012802 39 24 4.0 10.0 0.00 0.18 0.18 93 1005.1
20191119011803 39 27 3.0 8.0 0.00 0.18 0.18 93 1005.2
20191119010802 39 25 5.0 9.0 0.00 0.18 0.18 93 1005.5
20191119004802 39 37 4.0 13.0 0.00 0.18 0.18 94 1005.3
20191119003802 39 25 4.0 11.0 0.00 0.18 0.18 94 1005.2
20191119002803 39 38 3.0 11.0 0.00 0.18 0.18 94 1005.4
20191119001802 39 23 4.0 8.0 0.00 0.18 0.18 94 1005.5
20191119000802 39 24 4.0 8.0 0.00 0.18 0.18 94 1005.5
20191118235803 39 39 4.0 10.0 0.01 0.18 0.18 94 1005.6
20191118234802 39 16 3.0 10.0 0.01 0.18 0.18 94 1005.7
20191118233802 39 21 4.0 9.0 0.00 0.17 0.17 94 1005.5
20191118232803 39 24 6.0 14.0 0.00 0.17 0.17 94 1005.6
20191118231802 39 26 5.0 10.0 0.00 0.17 0.17 94 1005.9
20191118230802 39 8 4.0 11.0 0.00 0.17 0.17 94 1006.0
20191118225802 39 22 2.0 9.0 0.03 0.17 0.17 94 1005.9
20191118224802 39 354 4.0 10.0 0.02 0.16 0.16 94 1006.1
20191118223802 39 18 3.0 8.0 0.02 0.16 0.16 94 1006.3
20191118222802 39 12 4.0 9.0 0.01 0.15 0.15 94 1006.3
20191118221802 39 7 2.0 8.0 0.01 0.15 0.15 93 1006.4
20191118220803 39 13 3.0 8.0 0.00 0.14 0.14 93 1006.4
20191118215802 39 355 3.0 8.0 0.06 0.13 0.13 93 1006.5
20191118214802 39 2 3.0 9.0 0.05 0.12 0.12 93 1006.6
20191118213803 39 10 4.0 10.0 0.05 0.12 0.12 93 1006.6
20191118212802 39 14 4.0 12.0 0.04 0.11 0.11 93 1006.6
20191118211802 38 7 6.0 12.0 0.02 0.09 0.09 92 1006.8
20191118210803 38 4 6.0 14.0 0.01 0.08 0.08 92 1006.9
20191118205802 38 15 5.0 11.0 0.05 0.07 0.07 92 1006.9
20191118204803 38 11 5.0 11.0 0.04 0.06 0.06 91 1007.1